Location: Maiden
(35.5760°N, 81.2120°W)
Time: 02:36:36
(UTC-04:00)

A-11 Canister half - Pass Details

Date: 12 August 2020
Orbit: 1527 x 1682 km, 47.3° (Epoch: 25 September)

Event Time Altitude Azimuth Distance (km) Brightness Sun altitude
Rises 09:52:57 0° 187° (S) 4,837 11.6 37.4°
Reaches altitude 10° 09:56:53 10° 174° (S) 3,877 11.4 38.2°
Maximum altitude 10:04:14 24° 125° (SE) 2,966 11.9 39.7°
Drops below altitude 10° 10:11:38 10° 77° (ENE) 3,942 12.1 41.2°
Sets 10:15:38 0° 65° (ENE) 4,937 12.2 42.0°
